Reggio Calabria, Italy

4:04 AM CEST on July 27, 2017 (GMT +0200)
Reggio Calabria

Weather History for LICR - November, 2011

Change the Weather History Date:

Saturday, November 5, 2011

  Actual Average Record
Temperature  
Mean Temperature 66 °F -  
Max Temperature 69 °F 65 °F 78 °F (2008)
Min Temperature 64 °F 54 °F 46 °F (2006)
Cooling Degree Days 2    
Growing Degree Days 16 (Base 50)    
Moisture  
Dew Point 56 °F    
Average Humidity 67    
Maximum Humidity 78    
Minimum Humidity 53    
Precipitation  
Precipitation 0.00 in - - ()
Sea Level Pressure  
Sea Level Pressure 29.97 in    
Wind  
Wind Speed 19 mph ()    
Max Wind Speed 31 mph    
Max Gust Speed 45 mph    
Visibility 6.2 miles    
Events      
Averages and records for this station are not official NWS values.
T = Trace of Precipitation, MM = Missing Value Source: Averaged Metar Reports

Daily Weather History Graph

Daily Weather History Graph

Search for Another Location

Airport or City:

Trip Planner

Search our weather history database for the weather conditions in past years. The results will help you decide how hot, cold, wet, or windy it might be!

Date:

Astronomy

Nov. 05, 2011 Rise Set
Actual Time 6:26 AM CET 4:54 PM CET
Civil Twilight 5:59 AM CET 5:22 PM CET
Nautical Twilight 5:28 AM CET 5:53 PM CET
Astronomical Twilight 4:57 AM CET 6:24 PM CET
Moon 2:01 PM CET (11/5) 1:24 AM CET (11/5)
Length of Visible Light 11h 22m
Length of Day
10h 27m
Waxing Gibbous, 76% of the Moon is Illuminated
Nov 5
Waxing Gibbous
Nov 10
Full
Nov 18
Last Quarter
Nov 25
New
Dec 2
First Quarter

Hourly Weather History & Observations

Time (CET) Temp. Dew Point Humidity Pressure Visibility Wind Dir Wind Speed Gust Speed Precip Events Conditions
5:00 AM 64.4 °F 53.6 °F 68% 30.04 in 6.2 mi SSE 12.7 mph - N/A   Partly Cloudy
6:50 AM 64.4 °F 53.6 °F 68% 30.01 in 6.2 mi SSE 13.8 mph - N/A   Scattered Clouds
7:20 AM 64.4 °F 57.2 °F 77% 30.01 in 6.2 mi SSE 18.4 mph - N/A   Drizzle
7:50 AM 66.2 °F 55.4 °F 68% 30.01 in 6.2 mi SSE 19.6 mph - N/A   Scattered Clouds
8:50 AM 68.0 °F 51.8 °F 56% 30.04 in 6.2 mi SSE 19.6 mph - N/A   Partly Cloudy
9:50 AM 69.8 °F 51.8 °F 53% 30.04 in 6.2 mi SSE 21.9 mph - N/A   Partly Cloudy
10:50 AM 69.8 °F 53.6 °F 56% 30.04 in 6.2 mi SSE 25.3 mph 36.8 mph N/A   Partly Cloudy
11:50 AM 69.8 °F 55.4 °F 60% 30.01 in 6.2 mi SSE 23.0 mph 34.5 mph N/A   Scattered Clouds
12:50 PM 68.0 °F 53.6 °F 60% 29.98 in 6.2 mi SSE 25.3 mph - N/A   Scattered Clouds
1:50 PM 68.0 °F 57.2 °F 68% 29.95 in 6.2 mi SSE 26.5 mph - N/A   Mostly Cloudy
2:50 PM 66.2 °F 57.2 °F 73% 29.95 in 6.2 mi SSE 21.9 mph - N/A   Mostly Cloudy
3:50 PM 66.2 °F 57.2 °F 73% 29.95 in 6.2 mi SSE 24.2 mph 35.7 mph N/A   Mostly Cloudy
4:50 PM 68.0 °F 57.2 °F 68% 29.92 in 6.2 mi SSE 26.5 mph 44.9 mph N/A   Mostly Cloudy
5:50 PM 68.0 °F 57.2 °F 68% 29.92 in 6.2 mi SSE 26.5 mph 41.4 mph N/A   Mostly Cloudy
6:50 PM 68.0 °F 57.2 °F 68% 29.92 in 6.2 mi SE 28.8 mph 43.7 mph N/A   Mostly Cloudy
7:50 PM 68.0 °F 57.2 °F 68% 29.92 in 6.2 mi SE 31.1 mph 42.6 mph N/A   Scattered Clouds
8:50 PM 68.0 °F 57.2 °F 68% 29.92 in 6.2 mi SE 31.1 mph 43.7 mph N/A   Scattered Clouds
9:50 PM 66.2 °F 59.0 °F 78% 29.95 in 6.2 mi SE 25.3 mph 40.3 mph N/A   Scattered Clouds
10:50 PM 66.2 °F 59.0 °F 78% 29.95 in 6.2 mi SSE 25.3 mph 38.0 mph N/A   Scattered Clouds
11:50 PM 66.2 °F 57.2 °F 73% 29.95 in 6.2 mi SE 21.9 mph 36.8 mph N/A   Scattered Clouds